Hourly Weather Ryabinkino

Today, 16 April, Friday

Time Temperature Precipitation Wind Pressure Humidity
00:00 +1°C° 0 mm 4 mps 751 mmHg 78%
01:00 +1°C° 0 mm 4 mps 751 mmHg 79%
02:00 +1°C° 0 mm 4 mps 751 mmHg 81%
03:00 0°C° 0 mm 4 mps 752 mmHg 81%
04:00 0°C° 0 mm 4 mps 752 mmHg 82%
05:00 0°C° 0 mm 5 mps 752 mmHg 82%
06:00 +1°C° 0 mm 5 mps 752 mmHg 78%
07:00 +1°C° 0 mm 5 mps 752 mmHg 74%
08:00 +2°C° 0 mm 5 mps 753 mmHg 69%
09:00 +3°C° 0 mm 5 mps 753 mmHg 64%
10:00 +6°C° 0 mm 5 mps 753 mmHg 59%
11:00 +7°C° 0 mm 5 mps 753 mmHg 54%
12:00 +8°C° 0 mm 5 mps 753 mmHg 51%
13:00 +9°C° 0 mm 5 mps 753 mmHg 47%
14:00 +9°C° 0 mm 5 mps 753 mmHg 43%
15:00 +9°C° 0 mm 5 mps 753 mmHg 45%
16:00 +9°C° 0 mm 5 mps 753 mmHg 46%
17:00 +8°C° 0 mm 4 mps 753 mmHg 48%
18:00 +7°C° 0 mm 4 mps 753 mmHg 52%
19:00 +6°C° 0 mm 4 mps 753 mmHg 57%
20:00 +5°C° 0 mm 4 mps 753 mmHg 61%
21:00 +4°C° 0 mm 4 mps 753 mmHg 64%
22:00 +3°C° 0 mm 4 mps 754 mmHg 67%
23:00 +3°C° 0 mm 4 mps 754 mmHg 70%

Tomorrow, 17 April, Saturday

Time Temperature Precipitation Wind Pressure Humidity
00:00 +1°C° 0 mm 4 mps 754 mmHg 72%
01:00 +1°C° 0 mm 4 mps 754 mmHg 74%
02:00 0°C° 0 mm 4 mps 754 mmHg 77%
03:00 0°C° 0 mm 4 mps 754 mmHg 77%
04:00 0°C° 0 mm 4 mps 754 mmHg 78%
05:00 0°C° 0 mm 4 mps 754 mmHg 79%
06:00 +1°C° 0 mm 4 mps 754 mmHg 73%
07:00 +3°C° 0 mm 4 mps 754 mmHg 66%
08:00 +5°C° 0 mm 5 mps 754 mmHg 60%
09:00 +6°C° 0 mm 5 mps 754 mmHg 55%
10:00 +7°C° 0 mm 5 mps 754 mmHg 50%
11:00 +8°C° 0 mm 5 mps 754 mmHg 45%
12:00 +9°C° 0 mm 5 mps 754 mmHg 43%
13:00 +9°C° 0 mm 5 mps 754 mmHg 41%
14:00 +10°C° 0 mm 5 mps 754 mmHg 39%
15:00 +11°C° 0 mm 4 mps 754 mmHg 42%
16:00 +10°C° 0 mm 4 mps 754 mmHg 45%
17:00 +10°C° 0 mm 3 mps 753 mmHg 48%
18:00 +8°C° 0 mm 3 mps 753 mmHg 54%
19:00 +7°C° 0 mm 3 mps 753 mmHg 60%
20:00 +4°C° 0 mm 3 mps 753 mmHg 66%
21:00 +4°C° 0 mm 3 mps 753 mmHg 69%
22:00 +3°C° 0 mm 3 mps 753 mmHg 71%
23:00 +3°C° 0 mm 3 mps 753 mmHg 73%

Day after tomorrow, 18 April, Sunday

Time Temperature Precipitation Wind Pressure Humidity
00:00 +2°C° 0 mm 3 mps 753 mmHg 76%
01:00 +2°C° 0 mm 3 mps 753 mmHg 79%
02:00 +1°C° 0 mm 3 mps 753 mmHg 82%
03:00 +1°C° 0 mm 3 mps 753 mmHg 82%
04:00 +1°C° 0 mm 3 mps 753 mmHg 83%
05:00 +1°C° 0 mm 3 mps 753 mmHg 84%
06:00 +2°C° 0 mm 3 mps 753 mmHg 76%
07:00 +4°C° 0 mm 4 mps 753 mmHg 69%
08:00 +6°C° 0 mm 4 mps 753 mmHg 61%
09:00 +7°C° 0 mm 4 mps 753 mmHg 57%
10:00 +8°C° 0 mm 4 mps 753 mmHg 53%
11:00 +9°C° 0 mm 5 mps 753 mmHg 49%
12:00 +9°C° 0 mm 5 mps 753 mmHg 47%
13:00 +10°C° 0 mm 5 mps 753 mmHg 45%
14:00 +10°C° 0 mm 5 mps 753 mmHg 43%
15:00 +10°C° 0 mm 5 mps 753 mmHg 46%
16:00 +10°C° 0 mm 4 mps 753 mmHg 49%
17:00 +10°C° 0 mm 4 mps 752 mmHg 52%
18:00 +8°C° 0 mm 4 mps 753 mmHg 57%
19:00 +6°C° 0 mm 4 mps 753 mmHg 62%
20:00 +5°C° 0 mm 3 mps 753 mmHg 67%
21:00 +5°C° 0 mm 4 mps 753 mmHg 71%
22:00 +5°C° 0 mm 4 mps 753 mmHg 74%
23:00 +4°C° 0 mm 4 mps 753 mmHg 77%

19 April, Monday

Time Temperature Precipitation Wind Pressure Humidity
00:00 +4°C° 0 mm 4 mps 753 mmHg 80%
01:00 +3°C° 0 mm 3 mps 753 mmHg 83%
02:00 +3°C° 0 mm 3 mps 753 mmHg 86%
03:00 +2°C° 0 mm 3 mps 753 mmHg 87%
04:00 +2°C° 0 mm 3 mps 754 mmHg 89%
05:00 +2°C° 0 mm 3 mps 754 mmHg 90%
06:00 +3°C° 0 mm 3 mps 754 mmHg 85%
07:00 +4°C° 0 mm 4 mps 754 mmHg 79%
08:00 +4°C° 0 mm 4 mps 754 mmHg 74%
09:00 +5°C° 0 mm 4 mps 754 mmHg 69%
10:00 +6°C° 0 mm 4 mps 754 mmHg 65%
11:00 +7°C° 0 mm 4 mps 754 mmHg 60%
12:00 +7°C° 0 mm 4 mps 754 mmHg 59%
13:00 +7°C° 0 mm 4 mps 754 mmHg 58%
14:00 +8°C° 0 mm 4 mps 754 mmHg 56%
15:00 +7°C° 0 mm 4 mps 754 mmHg 57%
16:00 +7°C° 0 mm 4 mps 753 mmHg 59%
17:00 +8°C° 0 mm 3 mps 753 mmHg 60%
18:00 +7°C° 0 mm 3 mps 753 mmHg 62%
19:00 +5°C° 0 mm 3 mps 753 mmHg 64%
20:00 +4°C° 0 mm 3 mps 753 mmHg 65%
21:00 +3°C° 0 mm 3 mps 753 mmHg 66%
22:00 +3°C° 0 mm 3 mps 753 mmHg 68%
23:00 +2°C° 0 mm 3 mps 752 mmHg 69%

20 April, Tuesday

Time Temperature Precipitation Wind Pressure Humidity
00:00 +1°C° 0 mm 4 mps 752 mmHg 69%
01:00 0°C° 0 mm 4 mps 752 mmHg 69%
02:00 0°C° 0 mm 4 mps 752 mmHg 69%
03:00 0°C° 0 mm 4 mps 752 mmHg 69%
04:00 -1°C° 0 mm 4 mps 752 mmHg 68%
05:00 -1°C° 0 mm 4 mps 751 mmHg 68%
06:00 0°C° 0 mm 5 mps 751 mmHg 66%
07:00 +1°C° 0 mm 5 mps 751 mmHg 64%
08:00 +1°C° 0 mm 5 mps 750 mmHg 61%
09:00 +3°C° 0 mm 6 mps 750 mmHg 59%
10:00 +4°C° 0 mm 6 mps 749 mmHg 58%
11:00 +5°C° 0 mm 6 mps 749 mmHg 56%
12:00 +5°C° 0 mm 6 mps 748 mmHg 56%
13:00 +7°C° 0 mm 6 mps 747 mmHg 56%
14:00 +7°C° 0 mm 6 mps 747 mmHg 57%
15:00 +6°C° 0 mm 7 mps 746 mmHg 57%
16:00 +6°C° 0 mm 7 mps 745 mmHg 58%
17:00 +6°C° 0 mm 7 mps 744 mmHg 59%
18:00 +6°C° 0.1 mm 7 mps 744 mmHg 62%
19:00 +5°C° 0.1 mm 7 mps 743 mmHg 65%
20:00 +5°C° 0.1 mm 7 mps 743 mmHg 68%
21:00 +4°C° 0.7 mm 7 mps 742 mmHg 73%
22:00 +4°C° 0.7 mm 7 mps 741 mmHg 79%
23:00 +2°C° 0.7 mm 8 mps 741 mmHg 85%

21 April, Wednesday

Time Temperature Precipitation Wind Pressure Humidity
00:00 +3°C° 0.7 mm 7 mps 740 mmHg 87%
01:00 +3°C° 0.7 mm 7 mps 739 mmHg 89%
02:00 +2°C° 0.7 mm 7 mps 739 mmHg 92%
03:00 +2°C° 0.5 mm 7 mps 738 mmHg 91%
04:00 +2°C° 0.5 mm 7 mps 738 mmHg 91%
05:00 +3°C° 0.5 mm 7 mps 737 mmHg 91%
06:00 +3°C° 0.2 mm 7 mps 736 mmHg 91%
07:00 +2°C° 0.2 mm 8 mps 736 mmHg 90%
08:00 +4°C° 0.2 mm 8 mps 735 mmHg 90%
09:00 +4°C° 0.2 mm 8 mps 736 mmHg 87%
10:00 +4°C° 0.2 mm 7 mps 736 mmHg 85%
11:00 +5°C° 0.2 mm 7 mps 736 mmHg 82%
12:00 +6°C° 0.1 mm 7 mps 737 mmHg 79%
13:00 +6°C° 0.1 mm 7 mps 737 mmHg 75%
14:00 +8°C° 0.1 mm 6 mps 737 mmHg 72%
15:00 +9°C° 0.1 mm 6 mps 737 mmHg 71%
16:00 +9°C° 0.1 mm 7 mps 737 mmHg 71%
17:00 +9°C° 0.1 mm 7 mps 736 mmHg 71%
18:00 +8°C° 0.1 mm 7 mps 736 mmHg 73%
19:00 +8°C° 0.1 mm 7 mps 737 mmHg 75%
20:00 +6°C° 0.1 mm 7 mps 737 mmHg 77%
21:00 +6°C° 0.1 mm 7 mps 737 mmHg 78%
22:00 +5°C° 0.1 mm 7 mps 737 mmHg 78%
23:00 +5°C° 0.1 mm 7 mps 737 mmHg 78%
Show more